This demonstration page uses our WeatherBlox Daily Observations layout. Learn more.

Left ArrowRight Arrow

Hourly Observations for September 20, 2020

Temp ( °F °C ) Dew Point ( °F °C ) Humidity (%) Winds ( mph kmh ) Pressure ( in mb ) Visibility ( mi km ) Precip ( " mm )
12:51 am 00:51 Clear 76 24.4 35 1.7 23 23 ESE 10 17 29.86 1011 10 16.0934 0 0
1:51 am 01:51 Clear 74 23.3 37 2.8 26 26 SE 10 17 29.87 1011 10 16.0934 0 0
2:51 am 02:51 Clear 72 22.2 37 2.8 28 28 SE 8 13 29.88 1012 10 16.0934 0 0
3:51 am 03:51 Clear 71 21.7 38 3.3 30 30 E 12 19 29.88 1012 10 16.0934 0 0
4:51 am 04:51 Clear 72 22.2 38 3.3 29 29 E 12 19 29.89 1012 10 16.0934 0 0
5:51 am 05:51 Clear 72 22.2 39 3.9 30 30 E 10 17 29.91 1013 10 16.0934 0 0
6:51 am 06:51 Sunny 71 21.7 39 3.9 31 31 SE 10 17 29.93 1014 10 16.0934 0 0
7:51 am 07:51 Sunny 75 23.9 40 4.4 28 28 SE 13 20 29.94 1014 10 16.0934 0 0
8:51 am 08:51 Sunny 80 26.7 40 4.4 24 24 SE 13 20 29.95 1014 10 16.0934 0 0
9:51 am 09:51 Sunny 84 28.9 41 5 22 22 ESE 12 19 29.94 1014 10 16.0934 0 0
10:51 am 10:51 Sunny 88 31.1 43 6.1 21 21 SSE 7 11 29.92 1013 10 16.0934 0 0
11:51 am 11:51 Sunny 90 32.2 43 6.1 19 19 VRB 5 7 29.89 1012 10 16.0934 0 0
12:51 pm 12:51 Sunny 92 33.3 43 6.1 18 18 S 6 9 29.85 1011 10 16.0934 0 0
1:51 pm 13:51 Sunny 94 34.4 42 5.6 17 17 S 7 11 29.82 1010 10 16.0934 0 0
2:51 pm 14:51 Sunny 94 34.4 38 3.3 14 14 undefined N/A 29.8 1009 10 16.0934 0 0
3:51 pm 15:51 Sunny 95 35 37 2.8 13 13 W 8 13 29.78 1009 10 16.0934 0 0
4:51 pm 16:51 Sunny 94 34.4 37 2.8 14 14 SW 6 9 29.78 1009 10 16.0934 0 0
5:51 pm 17:51 Sunny 92 33.3 37 2.8 14 14 SSE 5 7 29.78 1009 10 16.0934 0 0
6:51 pm 18:51 Clear 85 29.4 36 2.2 17 17 SSE 6 9 29.8 1009 10 16.0934 0 0
7:51 pm 19:51 Clear 84 28.9 33 0.6 16 16 SE 6 9 29.81 1009 10 16.0934 0 0
8:51 pm 20:51 Clear 80 26.7 31 -0.6 17 17 Calm 29.83 1010 10 16.0934 0 0
9:51 pm 21:51 Clear 77 25 29 -1.7 17 17 SE 8 13 29.84 1011 10 16.0934 0 0
10:51 pm 22:51 Clear 76 24.4 34 1.1 22 22 SE 7 11 29.85 1011 10 16.0934 0 0
11:51 pm 23:51 Clear 73 22.8 36 2.2 26 26 SE 6 9 29.85 1011 10 16.0934 0 0

Powered by AerisWeather